Flag for Liechtenstein Weather past 2 weeks in Vaduz, Liechtenstein

Now
45 °F

Cool.


Feels Like: 41 °F
Forecast: 41 / 48 °F
Wind: 7 mph from Southeast

Location: Vaduz

Current Time: Mar 1, 2015 at 10:06:45 PM

Latest Report: Mar 1, 2015 at 9:00 PM


Visibility: N/A

Pressure: 29.89 "Hg

Humidity: 75%

Dew point: 38 °F

Location of VaduzLocation

Historic Weather in Vaduz — Graph

°F

Vaduz temperature yesterday

Maximum temperature yesterday: 45 °F (at 3:00 PM)
Minimum temperature yesterday: 35 °F (at 7:00 AM)
Average temperature yesterday: 39 °F

Past Weeks' High & Low Weather Summary

 TemperatureHumidityPressure
High54 °F (Feb 21, 2:00 PM)100% (Feb 15, 7:00 AM)30.74 "Hg (Feb 15, 7:00 AM)
Low27 °F (Feb 19, 9:00 AM)22% (Feb 20, 9:00 PM)29.44 "Hg (Feb 21, 1:00 PM)
Average36 °F74%30.08 "Hg
* Reported Feb 14 8:00 PM — Mar 1 8:00 PM, Vaduz, Weather by CustomWeather, © 2015

Note: Actual official high and low records may vary slightly from our data, if they occured in-between our weather recording intervals... More about our weather records

Advertising

Vaduz weather history for previous 24 hours

 ConditionsComfort  
Time TempWeatherWind HumidityBarometerVisibility
8:00 PM
Sun, Mar 1
46 °FCool.6 mph75%29.90 "HgN/A
7:00 PM46 °FFog.5 mph79%29.91 "Hg3 mi
6:00 PM49 °FCool.7 mph65%29.87 "HgN/A
5:00 PM51 °FCool.5 mph58%29.86 "HgN/A
4:00 PM50 °FOvercast.6 mph60%29.85 "Hg3 mi
3:00 PM50 °FCool.9 mph60%29.88 "HgN/A
2:00 PM49 °FCool.12 mph56%29.89 "HgN/A
1:00 PM48 °FRain. Overcast.10 mph58%29.92 "Hg3 mi
12:00 PM46 °FCool.8 mph59%29.95 "HgN/A
11:00 AM44 °FQuite cool.8 mph61%29.96 "HgN/A
10:00 AM42 °FHaze.6 mph56%29.98 "Hg3 mi
9:00 AM42 °FQuite cool.5 mph54%29.97 "HgN/A
8:00 AM41 °FQuite cool.8 mph56%29.98 "HgN/A
7:00 AM41 °FPassing clouds.6 mph53%29.96 "Hg1 mi
6:00 AM39 °FChilly.9 mph59%29.97 "HgN/A
5:00 AM40 °FChilly.6 mph57%30.00 "HgN/A
3:00 AM39 °FChilly.9 mph59%30.01 "HgN/A
2:00 AM38 °FChilly.8 mph64%30.04 "HgN/A
1:00 AM38 °FChilly.7 mph68%30.06 "HgN/A
12:00 AM36 °FChilly.5 mph81%30.09 "HgN/A
11:00 PM
Sat, Feb 28
38 °FChilly.5 mph77%30.11 "HgN/A
10:00 PM39 °FChilly.7 mph76%30.12 "HgN/A
Weather by CustomWeather, © 2015

See weather overviewHow to use our weather pages